Location: Morning Glory
(31.5701°N, 106.2158°W)
Time: 23:49:35
(UTC+00:00)

N. Korean satellite - Visible Passes

Search period start: 26 November 2022 00:00
Search period end: 06 December 2022 00:00
Orbit: 422 x 454 km, 97.3° (Epoch: 26 November)

Date Brightness Start Highest point End Pass type
(mag) Time Alt. Az. Time Alt. Az. Time Alt. Az.
26 Nov 9.6 00:29:06 10° SW 00:31:18 17° W 00:33:31 10° NW visible
26 Nov 8.1 11:52:53 10° NNE 11:56:02 34° E 11:59:08 10° SSE visible
27 Nov 7.2 12:46:47 10° NNW 12:49:50 31° WNW 12:52:51 10° SW visible
28 Nov 6.9 12:07:55 10° NNE 12:11:19 60° E 12:14:38 10° S visible
29 Nov 9.5 11:30:26 10° ENE 11:32:32 15° E 11:34:37 10° SE visible
29 Nov 7.8 13:02:27 10° NNW 13:04:55 19° WNW 13:07:22 10° WSW visible
30 Nov 6.2 12:22:59 10° N 12:26:24 75° WNW 12:29:45 10° SSW visible
01 Dec 8.7 11:44:46 10° NE 11:47:38 25° E 11:50:27 10° SSE visible
01 Dec 8.3 13:18:30 10° NW 13:19:50 12° WNW 13:21:09 10° W visible
02 Dec 6.7 12:38:05 10° N 12:41:18 41° WNW 12:44:29 10° SSW visible
03 Dec 9.8 00:36:09 10° SW 00:37:57 14° W 00:39:45 10° WNW visible
03 Dec 7.6 11:59:19 10° NNE 12:02:33 42° E 12:05:44 10° S visible
04 Dec 9.9 11:22:27 10° ENE 11:23:33 11° E 11:24:38 10° ESE visible
04 Dec 7.4 12:53:13 10° NNW 12:56:02 25° WNW 12:58:50 10° SW visible
05 Dec 6.5 12:13:54 10° NNE 12:17:17 75° E 12:20:36 10° S visible
